FW0014 Weather Reports


time (UTC)temp
C
wind
direction
speed
KPH
gust
KPH
rain 1hr
cm
rain 24hr
cm
rain mn
cm
humidity
%
barometer
mb
20260503032814 14 113 0.0 0.0 0.00 0.00 0.00 71 1023.1
20260503032504 14 113 0.0 1.6 0.00 0.00 0.00 71 1022.5
20260503032330 15 113 0.0 1.6 0.00 0.00 0.00 71 1023.0
20260503032058 14 112 0.0 1.6 0.00 0.00 0.00 71 1022.4
20260503032001 14 112 0.0 1.6 0.00 0.00 0.00 72 1022.4
20260503031827 15 114 0.0 1.6 0.00 0.00 0.00 72 1023.0
20260503031533 15 113 0.0 1.6 0.00 0.00 0.00 72 1022.4
20260503031339 15 113 0.0 3.2 0.00 0.00 0.00 71 1022.8
20260503031053 15 113 0.0 3.2 0.00 0.00 0.00 70 1022.2
20260503030815 15 113 1.6 3.2 0.00 0.00 0.00 70 1022.7
20260503030545 15 113 0.0 0.0 0.00 0.00 0.00 70 1022.2
20260503030331 15 112 0.0 1.6 0.00 0.00 0.00 70 1022.7
20260503030036 15 113 0.0 3.2 0.00 0.00 0.00 70 1022.1
20260503025827 15 113 0.0 3.2 0.00 0.00 0.00 70 1022.7
20260503025528 15 112 0.0 4.8 0.00 0.00 0.00 69 1022.0
20260503025344 15 113 3.2 4.8 0.00 0.00 0.00 69 1022.5
20260503025056 15 112 3.2 4.8 0.00 0.00 0.00 69 1022.0
20260503024839 15 113 3.2 4.8 0.00 0.00 0.00 69 1022.5
20260503024526 15 113 3.2 4.8 0.00 0.00 0.00 68 1021.9
20260503024341 16 113 3.2 4.8 0.00 0.00 0.00 68 1022.6
20260503024050 15 113 3.2 4.8 0.00 0.00 0.00 68 1022.1
20260503023830 16 113 3.2 4.8 0.00 0.00 0.00 68 1022.6
20260503023542 15 113 3.2 6.4 0.00 0.00 0.00 68 1022.0
20260503023328 16 113 4.8 6.4 0.00 0.00 0.00 68 1022.5
20260503023037 16 112 3.2 6.4 0.00 0.00 0.00 67 1021.9
20260503022823 16 113 4.8 4.8 0.00 0.00 0.00 67 1022.5
20260503022528 16 113 3.2 4.8 0.00 0.00 0.00 66 1021.8
20260503022318 16 113 3.2 4.8 0.00 0.00 0.00 66 1022.3
20260503022022 16 113 3.2 4.8 0.00 0.00 0.00 66 1021.7
20260503021816 16 113 3.2 4.8 0.00 0.00 0.00 65 1022.3
20260503021516 16 113 1.6 3.2 0.00 0.00 0.00 65 1021.7
20260503021333 17 114 3.2 4.8 0.00 0.00 0.00 64 1022.2
20260503021004 16 113 1.6 4.8 0.00 0.00 0.00 63 1021.5
20260503020829 17 113 3.2 4.8 0.00 0.00 0.00 63 1022.1
20260503020556 17 112 1.6 4.8 0.00 0.00 0.00 62 1021.5
20260503020345 17 113 1.6 4.8 0.00 0.00 0.00 61 1022.1
20260503020026 17 113 1.6 4.8 0.00 0.00 0.00 61 1021.6
20260503015819 17 113 3.2 4.8 0.00 0.00 0.00 60 1022.0
20260503015520 17 112 3.2 4.8 0.00 0.00 0.00 59 1021.6
20260503015315 17 113 3.2 3.2 0.00 0.00 0.00 59 1022.1
20260503015017 17 113 1.6 3.2 0.00 0.00 0.00 59 1021.5
20260503014833 18 113 3.2 4.8 0.00 0.00 0.00 59 1022.1
20260503014602 18 112 1.6 4.8 0.00 0.00 0.00 59 1021.5
20260503014328 18 113 3.2 4.8 0.00 0.00 0.00 60 1022.2
20260503014056 18 113 3.2 4.8 0.00 0.00 0.00 58 1021.6
20260503013844 18 113 3.2 4.8 0.00 0.00 0.00 57 1022.2
20260503013530 18 113 1.6 4.8 0.00 0.00 0.00 57 1021.6
20260503013319 19 113 3.2 3.2 0.00 0.00 0.00 57 1022.0
20260503013027 19 112 1.6 3.2 0.00 0.00 0.00 57 1021.3
20260503012815 20 112 1.6 3.2 0.00 0.00 0.00 55 1021.9
20260503012510 20 113 0.0 3.2 0.00 0.00 0.00 55 1021.3
20260503012333 20 113 1.6 3.2 0.00 0.00 0.00 54 1021.9
20260503012002 20 113 1.6 3.2 0.00 0.00 0.00 53 1021.3
20260503011829 20 112 1.6 3.2 0.00 0.00 0.00 52 1021.8
20260503011620 20 113 0.0 1.6 0.00 0.00 0.00 51 1021.2
20260503011326 20 114 0.0 1.6 0.00 0.00 0.00 50 1021.7
20260503011050 20 113 0.0 1.6 0.00 0.00 0.00 51 1021.1
20260503010822 21 113 0.0 3.2 0.00 0.00 0.00 49 1021.5
20260503010542 20 113 0.0 3.2 0.00 0.00 0.00 48 1021.0
20260503010317 21 113 0.0 3.2 0.00 0.00 0.00 47 1021.5
20260503010037 21 113 1.6 4.8 0.00 0.00 0.00 46 1021.0
20260503005854 21 114 1.6 4.8 0.00 0.00 0.00 47 1021.5
20260503005559 21 112 1.6 4.8 0.00 0.00 0.00 47 1020.9
20260503005329 21 113 1.6 4.8 0.00 0.00 0.00 46 1021.4
20260503005048 21 29 1.6 3.2 0.00 0.00 0.00 46 1021.0
20260503004826 21 29 1.6 3.2 0.00 0.00 0.00 48 1021.5
20260503004547 21 29 0.0 1.6 0.00 0.00 0.00 49 1020.9
20260503004322 22 30 0.0 0.0 0.00 0.00 0.00 49 1021.4
20260503004038 22 29 0.0 0.0 0.00 0.00 0.00 48 1021.0
20260503003818 22 29 0.0 0.0 0.00 0.00 0.00 47 1021.5
20260503003520 22 30 0.0 0.0 0.00 0.00 0.00 46 1021.0
20260503003352 22 29 0.0 0.0 0.00 0.00 0.00 45 1021.4
20260503003053 22 30 0.0 0.0 0.00 0.00 0.00 46 1021.0
20260503002828 22 30 0.0 0.0 0.00 0.00 0.00 46 1021.3
20260503002544 22 29 0.0 0.0 0.00 0.00 0.00 46 1020.9
20260503002324 22 29 0.0 1.6 0.00 0.00 0.00 46 1021.3
20260503002034 22 29 0.0 3.2 0.00 0.00 0.00 46 1020.9
20260503001819 22 29 0.0 3.2 0.00 0.00 0.00 46 1021.4
20260503001528 22 29 0.0 3.2 0.00 0.00 0.00 45 1021.0
20260503001315 22 29 0.0 3.2 0.00 0.00 0.00 45 1021.4
20260503001020 21 29 0.0 3.2 0.00 0.00 0.00 46 1021.1
20260503000831 22 29 1.6 3.2 0.00 0.00 0.00 46 1021.5
20260503000507 21 30 0.0 3.2 0.00 0.00 0.00 48 1021.1
20260503000328 22 29 0.0 3.2 0.00 0.00 0.00 49 1021.5
20260503000105 21 29 1.6 3.2 0.00 0.00 0.00 48 1021.1
20260502235824 21 30 1.6 3.2 0.00 0.00 0.00 48 1021.5
20260502235548 21 29 1.6 4.8 0.00 0.00 0.00 48 1021.1
20260502235318 21 29 1.6 4.8 0.00 0.00 0.00 47 1021.5
20260502235020 21 30 1.6 4.8 0.00 0.00 0.00 47 1021.0
20260502234816 21 30 3.2 4.8 0.00 0.00 0.00 47 1021.5
20260502234513 21 29 0.0 4.8 0.00 0.00 0.00 48 1021.0
20260502234331 21 29 1.6 4.8 0.00 0.00 0.00 49 1021.4
20260502234056 21 29 0.0 3.2 0.00 0.00 0.00 48 1021.0
20260502233826 21 29 0.0 4.8 0.00 0.00 0.00 48 1021.4
20260502233548 21 29 0.0 6.4 0.00 0.00 0.00 47 1021.0
20260502233343 21 29 1.6 6.4 0.00 0.00 0.00 48 1021.4
20260502233020 21 29 1.6 6.4 0.00 0.00 0.00 47 1021.0
20260502232819 21 29 4.8 6.4 0.00 0.00 0.00 46 1021.5
20260502232502 21 359 0.0 4.8 0.00 0.00 0.00 45 1021.0
20260502232315 22 329 0.0 0.0 0.00 0.00 0.00 44 1021.5
20260502232035 21 70 0.0 0.0 0.00 0.00 0.00 43 1021.0
20260502231832 22 31 0.0 0.0 0.00 0.00 0.00 43 1021.5
20260502231534 21 19 0.0 0.0 0.00 0.00 0.00 45 1021.1
20260502231327 22 168 0.0 0.0 0.00 0.00 0.00 44 1021.5
20260502231010 21 64 0.0 0.0 0.00 0.00 0.00 45 1021.1
20260502230825 22 47 0.0 0.0 0.00 0.00 0.00 45 1021.4
20260502230602 21 69 0.0 0.0 0.00 0.00 0.00 44 1021.1
20260502230322 22 112 0.0 0.0 0.00 0.00 0.00 45 1021.5
20260502230054 22 68 0.0 0.0 0.00 0.00 0.00 44 1021.1
20260502225818 22 38 0.0 0.0 0.00 0.00 0.00 46 1021.4
20260502225543 22 18 0.0 0.0 0.00 0.00 0.00 46 1021.0
20260502225333 22 145 0.0 0.0 0.00 0.00 0.00 46 1021.3
20260502225012 21 146 0.0 0.0 0.00 0.00 0.00 46 1020.9
20260502224829 22 145 0.0 0.0 0.00 0.00 0.00 45 1021.3
20260502224504 21 129 0.0 0.0 0.00 0.00 0.00 46 1021.0
20260502224325 22 128 0.0 0.0 0.00 0.00 0.00 46 1021.3
20260502224100 21 128 0.0 0.0 0.00 0.00 0.00 46 1021.1
20260502223821 22 128 0.0 0.0 0.00 0.00 0.00 46 1021.4
20260502223550 21 128 0.0 0.0 0.00 0.00 0.00 46 1021.0
20260502223317 22 128 0.0 0.0 0.00 0.00 0.00 47 1021.5
20260502223040 22 100 0.0 0.0 0.00 0.00 0.00 46 1021.1
20260502222852 22 46 0.0 0.0 0.00 0.00 0.00 46 1021.4
20260502222506 22 117 0.0 0.0 0.00 0.00 0.00 46 1021.1
20260502222348 22 75 0.0 0.0 0.00 0.00 0.00 46 1021.4
20260502222038 22 4 0.0 0.0 0.00 0.00 0.00 47 1021.2
20260502221823 22 68 0.0 0.0 0.00 0.00 0.00 46 1021.5
20260502221532 22 55 0.0 0.0 0.00 0.00 0.00 44 1021.1
20260502221336 22 69 0.0 0.0 0.00 0.00 0.00 45 1021.5
20260502221056 22 72 0.0 0.0 0.00 0.00 0.00 45 1021.2
20260502220832 22 56 0.0 0.0 0.00 0.00 0.00 44 1021.6
20260502220548 22 93 0.0 0.0 0.00 0.00 0.00 44 1021.2
20260502220328 22 316 0.0 0.0 0.00 0.00 0.00 44 1021.5
20260502220012 21 359 0.0 0.0 0.00 0.00 0.00 45 1021.3
20260502215824 22 126 0.0 0.0 0.00 0.00 0.00 44 1021.6
20260502215506 21 294 0.0 0.0 0.00 0.00 0.00 43 1021.4
20260502215321 22 323 0.0 0.0 0.00 0.00 0.00 44 1021.6
20260502215059 21 23 0.0 0.0 0.00 0.00 0.00 44 1021.5
20260502214817 22 4 0.0 0.0 0.00 0.00 0.00 45 1021.8
20260502214552 21 53 0.0 0.0 0.00 0.00 0.00 45 1021.5
20260502214314 22 53 0.0 0.0 0.00 0.00 0.00 45 1021.8
20260502214046 21 308 0.0 0.0 0.00 0.00 0.00 44 1021.5
20260502213831 22 39 0.0 0.0 0.00 0.00 0.00 46 1021.9
20260502213541 21 85 0.0 0.0 0.00 0.00 0.00 45 1021.7
20260502213325 21 85 0.0 0.0 0.00 0.00 0.00 43 1022.0
20260502213038 21 56 0.0 0.0 0.00 0.00 0.00 45 1021.8
20260502212821 22 359 0.0 0.0 0.00 0.00 0.00 46 1022.2
20260502212522 21 99 0.0 0.0 0.00 0.00 0.00 44 1021.8
20260502212316 22 62 0.0 0.0 0.00 0.00 0.00 44 1022.3
20260502212016 21 54 0.0 0.0 0.00 0.00 0.00 45 1022.0
20260502211832 22 123 0.0 0.0 0.00 0.00 0.00 45 1022.1
20260502211600 21 123 0.0 0.0 0.00 0.00 0.00 45 1022.0
20260502211329 21 66 0.0 0.0 0.00 0.00 0.00 47 1022.2
20260502211051 21 8 0.0 6.4 0.00 0.00 0.00 44 1022.0
20260502210825 21 43 0.0 9.7 0.00 0.00 0.00 44 1022.3
20260502210545 21 54 0.0 9.7 0.00 0.00 0.00 45 1022.0
20260502210318 21 64 1.6 16.1 0.00 0.00 0.00 45 1022.3
20260502210020 21 64 6.4 17.7 0.00 0.00 0.00 45 1022.1
20260502205814 21 16 4.8 17.7 0.00 0.00 0.00 48 1022.5
20260502205504 21 50 9.7 20.9 0.00 0.00 0.00 46 1022.2
20260502205330 21 62 9.7 20.9 0.00 0.00 0.00 46 1022.6
20260502205057 21 45 12.9 20.9 0.00 0.00 0.00 44 1022.3
20260502204825 21 39 12.9 19.3 0.00 0.00 0.00 46 1022.6
20260502204550 21 52 4.8 9.7 0.00 0.00 0.00 47 1022.4
20260502204322 21 83 3.2 14.5 0.00 0.00 0.00 45 1022.7
20260502204042 21 359 3.2 17.7 0.00 0.00 0.00 45 1022.4
20260502203818 21 336 6.4 17.7 0.00 0.00 0.00 46 1022.7
20260502203536 21 18 9.7 17.7 0.00 0.00 0.00 45 1022.5
20260502203354 21 53 8.0 14.5 0.00 0.00 0.00 47 1022.8
20260502203058 21 338 4.8 11.3 0.00 0.00 0.00 49 1022.6
20260502202849 21 119 6.4 9.7 0.00 0.00 0.00 46 1022.8
20260502202527 21 37 0.0 0.0 0.00 0.00 0.00 47 1022.5
20260502202325 21 43 0.0 0.0 0.00 0.00 0.00 50 1022.8
20260502202019 21 37 0.0 0.0 0.00 0.00 0.00 49 1022.6
20260502201821 21 71 0.0 0.0 0.00 0.00 0.00 49 1022.8
20260502201513 21 156 0.0 0.0 0.00 0.00 0.00 47 1022.6
20260502201316 21 156 0.0 0.0 0.00 0.00 0.00 48 1022.8
20260502201056 21 69 0.0 0.0 0.00 0.00 0.00 50 1022.7
20260502200832 21 70 0.0 0.0 0.00 0.00 0.00 51 1022.9
20260502200548 21 77 0.0 0.0 0.00 0.00 0.00 49 1022.7
20260502200327 21 26 0.0 0.0 0.00 0.00 0.00 49 1022.9
20260502200054 21 50 0.0 0.0 0.00 0.00 0.00 48 1022.9
20260502195822 21 4 0.0 0.0 0.00 0.00 0.00 49 1023.0
20260502195529 21 37 0.0 0.0 0.00 0.00 0.00 51 1022.8
20260502195317 21 46 0.0 0.0 0.00 0.00 0.00 49 1023.0
20260502195019 21 60 0.0 0.0 0.00 0.00 0.00 50 1022.8
20260502194853 21 58 0.0 0.0 0.00 0.00 0.00 50 1023.1
20260502194553 21 81 0.0 0.0 0.00 0.00 0.00 49 1023.0
20260502194328 21 45 0.0 0.0 0.00 0.00 0.00 50 1023.1
20260502194045 21 79 0.0 0.0 0.00 0.00 0.00 51 1023.0
20260502193842 21 39 0.0 0.0 0.00 0.00 0.00 50 1023.2
20260502193521 20 16 0.0 0.0 0.00 0.00 0.00 49 1023.1
20260502193318 21 34 0.0 0.0 0.00 0.00 0.00 52 1023.3
20260502193005 20 4 0.0 0.0 0.00 0.00 0.00 51 1023.0
20260502192815 20 43 0.0 0.0 0.00 0.00 0.00 51 1023.2
20260502192558 20 72 0.0 0.0 0.00 0.00 0.00 50 1023.0
20260502192332 21 11 0.0 0.0 0.00 0.00 0.00 49 1023.1
20260502192047 20 15 0.0 6.4 0.00 0.00 0.00 49 1023.1
20260502191828 21 354 0.0 6.4 0.00 0.00 0.00 48 1023.2
20260502191543 21 11 0.0 6.4 0.00 0.00 0.00 52 1023.1
20260502191322 21 10 0.0 0.0 0.00 0.00 0.00 51 1023.3
20260502191031 21 13 0.0 6.4 0.00 0.00 0.00 53 1023.1
20260502190816 21 45 0.0 6.4 0.00 0.00 0.00 55 1023.2
20260502190556 20 58 0.0 12.9 0.00 0.00 0.00 55 1023.1
20260502190332 20 35 1.6 17.7 0.00 0.00 0.00 55 1023.2
20260502190050 20 48 3.2 24.1 0.00 0.00 0.00 53 1023.2
20260502185829 20 354 6.4 24.1 0.00 0.20 0.00 53 1023.3
20260502185539 20 50 14.5 24.1 0.00 0.20 0.00 54 1023.2
20260502185326 20 4 14.5 24.1 0.00 0.20 0.00 54 1023.3
20260502185031 20 354 12.9 22.5 0.00 0.20 0.00 54 1023.2
20260502184841 20 31 8.0 19.3 0.00 0.20 0.00 54 1023.3
20260502184556 20 335 11.3 22.5 0.00 0.20 0.00 53 1023.2
20260502184315 20 11 9.7 22.5 0.00 0.20 0.00 52 1023.4
20260502184047 20 61 9.7 22.5 0.00 0.20 0.00 53 1023.3
20260502183851 20 93 9.7 19.3 0.00 0.20 0.00 56 1023.4
20260502183513 20 97 6.4 20.9 0.00 0.20 0.00 54 1023.2
20260502183327 20 12 8.0 20.9 0.00 0.20 0.00 55 1023.4
20260502183003 20 47 12.9 20.9 0.00 0.20 0.00 55 1023.3
20260502182556 20 48 8.0 19.3 0.00 0.20 0.00 52 1023.3
20260502182317 20 44 8.0 19.3 0.00 0.20 0.00 56 1023.4
20260502182048 20 42 6.4 19.3 0.00 0.20 0.00 55 1023.3
20260502181833 20 19 4.8 19.3 0.00 0.20 0.00 56 1023.5
20260502181540 20 24 12.9 19.3 0.00 0.20 0.00 55 1023.5
20260502181328 20 21 11.3 17.7 0.00 0.20 0.00 58 1023.7
20260502181029 20 347 8.0 17.7 0.00 0.20 0.00 58 1023.5
20260502180824 20 326 9.7 17.7 0.00 0.20 0.00 56 1023.7
20260502180522 19 339 11.3 17.7 0.00 0.20 0.00 56 1023.6
20260502180319 20 313 8.0 14.5 0.00 0.20 0.00 57 1023.8
20260502170328 18 4 6.4 16.1 0.00 0.41 0.00 65 1024.6
20260502164326 17 343 3.2 17.7 0.00 0.43 0.00 68 1024.8
20260502164007 17 65 8.0 17.7 0.00 0.43 0.00 67 1024.8
20260502163822 17 15 4.8 17.7 0.00 0.43 0.00 68 1024.8
20260502163501 17 4 8.0 12.9 0.00 0.43 0.00 69 1024.8
20260502163318 17 335 4.8 12.9 0.00 0.43 0.00 70 1024.8
20260502163057 17 343 8.0 12.9 0.00 0.43 0.00 68 1024.8
20260502162853 17 359 8.0 16.1 0.00 0.43 0.00 68 1024.8
20260502162516 17 27 3.2 16.1 0.00 0.43 0.00 68 1024.9
20260502162329 17 33 8.0 16.1 0.00 0.43 0.00 67 1024.9
20260502162007 17 18 0.0 17.7 0.00 0.43 0.00 71 1024.9
20260502161823 17 247 1.6 17.7 0.00 0.43 0.00 69 1024.9
20260502161503 17 289 6.4 17.7 0.00 0.43 0.00 68 1024.9
20260502161341 17 337 11.3 17.7 0.00 0.43 0.00 69 1025.0
20260502161035 17 345 6.4 14.5 0.00 0.43 0.00 69 1024.9
20260502160835 17 330 3.2 16.1 0.00 0.43 0.00 69 1024.9
20260502160602 16 317 3.2 16.1 0.00 0.43 0.00 69 1024.9
20260502160330 17 354 3.2 16.1 0.00 0.43 0.00 70 1025.0
20260502152321 16 278 4.8 9.7 0.00 0.43 0.00 74 1024.5
20260502152045 15 294 4.8 12.9 0.00 0.43 0.00 74 1024.4
20260502151818 15 307 3.2 16.1 0.00 0.43 0.00 74 1024.4
20260502151558 15 289 6.4 16.1 0.00 0.43 0.00 74 1024.5
20260502151333 15 304 8.0 16.1 0.00 0.43 0.00 74 1024.4
20260502151033 15 359 8.0 16.1 0.00 0.43 0.00 73 1024.5
20260502150851 15 303 8.0 14.5 0.00 0.43 0.00 75 1024.5
20260502150558 15 312 6.4 9.7 0.00 0.43 0.00 75 1024.6
20260502150326 15 276 4.8 9.7 0.00 0.43 0.00 76 1024.5
20260502130545 10 248 1.6 4.8 0.00 0.94 0.00 91 1023.8
20260502130327 10 248 3.2 4.8 0.00 0.94 0.00 91 1023.6
20260502123530 8 249 3.2 6.4 0.00 1.04 0.00 91 1023.5
20260502123321 8 249 4.8 6.4 0.00 1.04 0.00 91 1023.4
20260502123026 8 249 4.8 6.4 0.00 1.04 0.00 91 1023.4
20260502122816 8 249 4.8 6.4 0.00 1.04 0.00 91 1023.3
20260502122511 8 249 3.2 6.4 0.00 1.04 0.00 91 1023.2
20260502122332 8 249 3.2 6.4 0.00 1.04 0.00 91 1023.2
20260502122043 8 249 3.2 6.4 0.00 1.04 0.00 91 1023.2
20260502121825 8 249 4.8 6.4 0.00 1.04 0.00 90 1023.1
20260502121540 7 249 3.2 6.4 0.00 1.04 0.00 90 1023.1
20260502121322 8 249 4.8 6.4 0.00 1.04 0.00 90 1023.0
20260502121029 7 249 3.2 4.8 0.00 1.04 0.00 90 1022.9
20260502120817 8 249 3.2 6.4 0.00 1.04 0.00 90 1022.8
20260502120553 8 249 3.2 6.4 0.00 1.04 0.00 90 1022.6
20260502120332 8 249 3.2 6.4 0.00 1.04 0.00 90 1022.6
20260502115825 8 249 3.2 4.8 0.00 1.14 0.00 90 1022.5
20260502115537 8 249 3.2 6.4 0.00 1.14 0.00 90 1022.4
20260502115320 8 249 3.2 6.4 0.00 1.14 0.00 90 1022.3
20260502115029 8 249 3.2 6.4 0.00 1.14 0.00 90 1022.2
20260502114816 8 249 4.8 6.4 0.00 1.14 0.00 90 1022.3
20260502114514 8 254 3.2 4.8 0.00 1.14 0.00 90 1022.3
20260502114349 8 359 3.2 4.8 0.00 1.14 0.00 90 1022.3
20260502114047 8 314 3.2 4.8 0.00 1.14 0.00 90 1022.2
20260502113821 8 314 3.2 4.8 0.00 1.14 0.00 90 1022.2
20260502113541 8 359 1.6 4.8 0.00 1.14 0.00 90 1022.1
20260502113317 8 314 3.2 4.8 0.00 1.14 0.00 90 1022.0
20260502113045 8 314 1.6 6.4 0.00 1.14 0.00 90 1021.9
20260502112832 8 314 3.2 6.4 0.00 1.14 0.00 90 1022.0
20260502112516 8 328 3.2 6.4 0.00 1.14 0.00 90 1021.9
20260502112328 8 310 4.8 6.4 0.00 1.14 0.00 90 1022.0
20260502112011 8 307 3.2 6.4 0.00 1.14 0.00 90 1021.8
20260502111946 8 308 4.8 6.4 0.00 1.14 0.00 91 1021.9
20260502111549 8 359 3.2 6.4 0.00 1.14 0.00 91 1021.8
20260502111327 8 359 3.2 6.4 0.00 1.14 0.00 91 1021.7
20260502111039 8 312 3.2 6.4 0.00 1.14 0.00 91 1021.7
20260502110823 8 359 3.2 6.4 0.00 1.14 0.00 91 1021.6
20260502110533 8 312 3.2 6.4 0.00 1.14 0.00 91 1021.7
20260502110318 8 312 3.2 6.4 0.00 1.14 0.00 91 1021.5
20260502110034 8 312 3.2 8.0 0.00 1.14 0.00 91 1021.4
20260502105832 8 311 4.8 8.0 0.00 1.27 0.00 91 1021.5
20260502105511 8 312 3.2 8.0 0.00 1.27 0.00 91 1021.4
20260502105327 8 312 4.8 8.0 0.00 1.27 0.00 91 1021.3
20260502105003 8 312 3.2 6.4 0.00 1.27 0.00 91 1021.3
20260502104822 8 312 3.2 6.4 0.00 1.27 0.00 91 1021.3
20260502104557 8 312 3.2 6.4 0.00 1.27 0.00 91 1021.1
20260502104339 8 312 4.8 8.0 0.00 1.27 0.00 91 1021.1
20260502104028 8 312 1.6 8.0 0.00 1.27 0.00 91 1021.0
20260502103814 8 359 4.8 8.0 0.00 1.27 0.00 91 1021.0
20260502103521 8 312 4.8 8.0 0.00 1.27 0.00 91 1020.8
20260502103331 8 323 3.2 6.4 0.00 1.27 0.00 91 1020.9
20260502103005 8 330 1.6 6.4 0.00 1.27 0.00 91 1020.9
20260502102826 8 329 3.2 6.4 0.00 1.27 0.00 91 1020.7
20260502102602 8 330 3.2 6.4 0.00 1.27 0.00 91 1020.7
20260502102322 8 329 4.8 6.4 0.00 1.27 0.00 91 1020.7
20260502102052 8 339 3.2 4.8 0.00 1.27 0.00 91 1020.6
20260502101817 8 339 3.2 4.8 0.00 1.27 0.00 91 1020.7
20260502101557 8 339 1.6 4.8 0.00 1.27 0.00 91 1020.6
20260502101353 8 339 3.2 4.8 0.00 1.27 0.00 91 1020.6
20260502101010 8 339 3.2 4.8 0.00 1.27 0.00 91 1020.5
20260502100827 8 339 3.2 4.8 0.00 1.27 0.00 91 1020.5
20260502100502 8 339 1.6 4.8 0.00 1.27 0.00 91 1020.6
20260502100323 8 339 3.2 4.8 0.00 1.27 0.00 91 1020.6
20260502100103 8 339 3.2 4.8 0.00 1.27 0.00 91 1020.4
20260502091319 8 359 3.2 6.4 0.00 1.47 0.00 91 1020.6
20260502091051 8 339 1.6 6.4 0.00 1.45 0.00 91 1020.5
20260502090817 8 339 3.2 6.4 0.00 1.47 0.00 91 1020.8
20260502090542 8 339 1.6 6.4 0.00 1.45 0.00 91 1020.5
20260502090333 8 339 4.8 6.4 0.00 1.47 0.00 91 1020.6
20260502071316 9 332 4.8 6.4 0.00 1.68 0.00 90 1020.8
20260502071040 8 359 3.2 6.4 0.00 1.68 0.00 90 1020.6
20260502070831 9 331 3.2 6.4 0.00 1.68 0.00 90 1020.8
20260502070526 8 359 3.2 6.4 0.00 1.68 0.00 90 1020.7
20260502070326 9 332 4.8 6.4 0.00 1.68 0.00 90 1020.8
20260502070037 9 334 3.2 8.0 0.00 1.68 0.00 90 1020.6
20260502065822 9 333 4.8 8.0 0.00 1.68 0.00 90 1020.8
20260502065515 9 359 3.2 8.0 0.00 1.68 0.00 89 1020.6
20260502065316 10 324 4.8 8.0 0.00 1.68 0.00 89 1020.8
20260502065059 9 23 3.2 6.4 0.00 1.68 0.00 89 1020.6
20260502064832 10 23 1.6 6.4 0.00 1.68 0.00 89 1020.9
20260502064604 9 23 3.2 6.4 0.00 1.68 0.00 89 1020.6
20260502064328 10 23 3.2 6.4 0.00 1.68 0.00 89 1020.7
20260502064042 9 23 4.8 6.4 0.00 1.68 0.00 89 1020.5
20260502063824 10 23 4.8 6.4 0.00 1.68 0.00 89 1020.6
20260502063536 9 23 1.6 6.4 0.00 1.68 0.00 89 1020.4
20260502063320 10 23 3.2 6.4 0.00 1.68 0.00 89 1020.5
20260502063039 9 23 3.2 6.4 0.00 1.68 0.00 89 1020.2
20260502062815 10 23 3.2 6.4 0.00 1.68 0.00 89 1020.5
20260502062515 9 23 1.6 6.4 0.00 1.68 0.00 89 1020.1
20260502062331 10 23 3.2 6.4 0.00 1.68 0.00 89 1020.4
20260502062010 9 23 3.2 6.4 0.00 1.68 0.00 90 1020.2
20260502061846 10 359 3.2 6.4 0.00 1.68 0.00 90 1020.4
20260502061541 9 359 3.2 6.4 0.00 1.68 0.00 90 1020.3
20260502061321 10 21 4.8 6.4 0.00 1.68 0.00 90 1020.4
20260502061032 9 354 3.2 12.9 0.00 1.68 0.00 90 1020.4
20260502060816 10 359 4.8 12.9 0.00 1.68 0.00 90 1020.5
20260502060518 9 15 3.2 12.9 0.00 1.68 0.00 90 1020.4
20260502060331 10 350 4.8 12.9 0.00 1.68 0.00 90 1020.6
20260502060115 9 18 4.8 12.9 0.00 1.68 0.00 90 1020.4
20260502055820 10 347 4.8 12.9 0.00 1.70 0.00 91 1020.6
20260502055530 9 359 4.8 9.7 0.00 1.70 0.00 90 1020.4
20260502055317 9 337 4.8 6.4 0.00 1.70 0.00 90 1020.7
20260502055027 9 347 3.2 6.4 0.00 1.70 0.00 90 1020.3
20260502054833 10 359 3.2 6.4 0.00 1.70 0.00 90 1020.6
20260502054526 9 341 1.6 4.8 0.00 1.70 0.00 90 1020.3
20260502054349 10 341 3.2 4.8 0.00 1.70 0.00 90 1020.6
20260502054046 9 359 1.6 4.8 0.00 1.70 0.00 90 1020.5
20260502053823 10 359 3.2 6.4 0.00 1.70 0.00 90 1020.7
20260502053532 9 359 1.6 6.4 0.00 1.70 0.00 90 1020.5
20260502053318 10 359 3.2 6.4 0.00 1.70 0.00 90 1020.7
20260502053024 9 359 3.2 6.4 0.00 1.70 0.00 90 1020.5
20260502052836 10 330 3.2 6.4 0.00 1.70 0.00 90 1020.7
20260502052550 10 359 3.2 8.0 0.00 1.70 0.00 90 1020.4
20260502052351 10 359 3.2 8.0 0.00 1.70 0.00 90 1020.7
20260502052014 10 359 1.6 8.0 0.00 1.70 0.00 90 1020.4
20260502051846 10 359 4.8 8.0 0.00 1.70 0.00 90 1020.6
20260502051548 10 359 3.2 8.0 0.00 1.70 0.00 90 1020.3
20260502051319 10 345 4.8 6.4 0.00 1.70 0.00 90 1020.5
20260502051040 10 13 3.2 6.4 0.00 1.70 0.00 89 1020.2
20260502050836 10 13 3.2 6.4 0.00 1.70 0.00 89 1020.4
20260502050505 10 13 1.6 6.4 0.00 1.70 0.00 89 1020.1
20260502050330 10 13 3.2 6.4 0.00 1.70 0.00 89 1020.4
20260502045819 10 13 1.6 4.8 0.00 1.70 1.70 90 1020.5
20260502045509 10 13 1.6 6.4 0.00 1.70 1.70 90 1020.1
20260502045313 10 13 3.2 6.4 0.00 1.70 1.70 90 1020.4
20260502045001 10 13 3.2 6.4 0.00 1.70 1.70 90 1020.0
20260502044829 10 354 3.2 6.4 0.00 1.70 1.70 90 1020.3
20260502044556 10 354 1.6 6.4 0.00 1.70 1.70 90 1020.1
20260502044324 10 359 3.2 4.8 0.00 1.70 1.70 90 1020.4
20260502044046 10 354 1.6 4.8 0.00 1.70 1.70 89 1020.1
20260502043819 10 359 3.2 6.4 0.00 1.70 1.70 90 1020.5
20260502043538 10 359 1.6 6.4 0.00 1.70 1.70 90 1020.3
20260502043335 10 354 3.2 6.4 0.00 1.70 1.70 90 1020.6
20260502043005 10 359 3.2 6.4 0.00 1.70 1.70 90 1020.0
20260502042828 10 354 3.2 6.4 0.00 1.70 1.70 90 1020.4
20260502042604 10 354 1.6 8.0 0.00 1.70 1.70 90 1020.2
20260502042326 10 354 3.2 8.0 0.00 1.70 1.70 90 1020.4
20260502042055 10 359 3.2 8.0 0.00 1.70 1.70 90 1020.1
20260502041822 10 349 4.8 8.0 0.00 1.70 1.70 90 1020.4
20260502041557 10 343 3.2 8.0 0.00 1.70 1.70 89 1020.0
20260502041316 10 359 3.2 8.0 0.00 1.70 1.70 89 1020.5
20260502041043 10 344 3.2 8.0 0.00 1.70 1.70 89 1020.2
20260502040827 10 354 3.2 8.0 0.00 1.70 1.70 89 1020.4
20260502040532 10 359 3.2 8.0 0.00 1.70 1.70 89 1020.0
20260502040323 10 354 4.8 8.0 0.00 1.70 1.70 89 1020.4
20260502040029 10 45 3.2 8.0 0.00 1.70 1.70 89 1020.1
20260502035818 11 45 3.2 8.0 0.00 1.70 1.70 89 1020.4
20260502035518 10 45 3.2 6.4 0.00 1.70 1.70 89 1020.0
20260502035314 11 45 3.2 6.4 0.00 1.70 1.70 89 1020.3
20260502035002 10 45 3.2 6.4 0.00 1.70 1.70 89 1019.9
20260502034828 11 45 3.2 6.4 0.00 1.70 1.70 89 1020.3
20260502034558 10 45 1.6 6.4 0.00 1.70 1.70 89 1020.0
20260502034324 11 45 3.2 6.4 0.00 1.70 1.70 89 1020.3
20260502034054 10 45 3.2 6.4 0.00 1.70 1.70 89 1020.0
20260502033821 11 45 3.2 4.8 0.00 1.70 1.70 89 1020.4
20260502033544 11 45 1.6 4.8 0.00 1.70 1.70 88 1020.0
20260502033318 11 45 1.6 4.8 0.00 1.70 1.70 88 1020.3
20260502033039 11 45 1.6 4.8 0.00 1.70 1.70 88 1019.9